STARLINK-11393, 62016

Orbit data source: Space-Track

STARLINK-11393, 62016 is a payload satellite owned by SpaceX/Seattle (US) in LEO that was launched on Mon, 18 Nov 2024 UTC via an FALCON 9 launch vehicle from the Air Force Western Test Range (AFWTR). Payload-class satellites include a variety of spacecraft equipped with specific instruments for various scientific and technological missions. These include communications satellites like Starlink; space stations such as the ISS; scientific satellites like the Hubble; Earth observation satellites from companies like Planet Labs, Umbra, and HawkEye 360; GPS; miniature CubeSats for education and research; and military/defense satellites.

Loading next visibility...
Identifier
62016, 2024-213J
Orbit
LEO
Last TLE update
9 hours ago
Origin
Manufacturer
SpaceX/Seattle
Mission
Operational Commercial Communications
Bus & Motor
STARLINK V2M, Unknown motor
Mass
730 kg wet, ~700 kg dry
Launch date (UTC)
2024-11-18 (7 months ago)
Launch vehicle
FALCON 9
Launch site
Air Force Western Test Range (AFWTR)
Object type
Payload
Rocket body
Debris
Shape & HBR
Box + 2 Pan, 29 m
Radar Cross Section
36.964 m², Large (>1 m²)

Expand to show TLE details & history

TLE from 9 hours ago
0 STARLINK-11393
1 62016U 24213J   25181.77942591  .00084079  00000-0  69127-3 0  9994
2 62016  53.1583 202.8046 0001201  81.6296 278.4858 15.69729574 36309
Epoch: 2025-06-30T18:42Z
TLE epoch observation values (Epoch: 2025-06-30T18:42:22.398Z)
Latitude
-0.00003°
Longitude
3.12692°
Altitude
360.466 km
Speed
7.694 km/s
True Right ascension
13h 31m 13s
True Declination
0° 00' 00"
Sunlit
Object was in daylight at epoch
Visualization orbit readout
Latitude
2.28826°
Longitude
2.94654°
Altitude
359.991 km
Speed
7.695 km/s
Apparent Right ascension
10h 32m 22s
Apparent Declination
-47° 25' 37"
Sunlit
Object is in daylight
Visualization observer readout
Local Sidereal Time
15:30:33
Azimuth
223.777° SW
Elevation
-19.526°
Doppler factor
1
Orbital elements
Apogee altitude
360.741 km
Perigee altitude
359.122 km
Semi-major axis
6,738.069 km
Eccentricity
0.00012
Inclination
53.1583°
RAAN
202.8046°
Arg. of periapsis
81.6296°
True anomaly
Unknown
Mean anomaly
278.4858°
Eccentric anomaly
Unknown
Mean motion
3.9241 °/min
Orbital period
91.74 mins
BSTAR
0.00069127
Loading maneuver chart data...
Loading SW <> Apogee altitude chart data...
Loading historical data...
Loading historical data...
Loading historical data...
Loading historical data...
Loading historical data...
Loading historical data...
Loading historical data...

STARLINK-11393 Visibility forecast

Observer location: undefined°, undefined°

Span
Click to sort rows by Start time (UTC) header in descending order
Start Az.
Max El. time (UTC)
Max El. Az.
Max El.
End time (UTC)
End Az.
5 mins2025-07-01 04:03:10.834Z214.071° SW2025-07-01 04:05:10.834Z162.573° S39.285°2025-07-01 04:08:10.834Z57.667° ENE
|